Regional Weather Roundup
Issued by NWS

Home | Current Version | Previous Version | Graphics & Text | Print | Product List | Glossary On
Versions: 1 2 3 4 5 6 7 8 9 10 11 12 13 14 15 16 17 18 19 20 21 22 23 24 25 26 27 28 29 30 31 32 33 34 35 36 37 38 39 40 41 42 43 44 45 46 47 48 49 50
170
ASUS43 KFSD 222102
RWRSD

WEATHER ROUNDUP FOR SOUTH DAKOTA
NATIONAL WEATHER SERVICE SIOUX FALLS SD
400 PM CDT WED MAR 22 2017

NOTE: "FAIR" INDICATES FEW OR NO CLOUDS BELOW 12,000 FEET WITH NO
SIGNIFICANT WEATHER AND/OR OBSTRUCTIONS TO VISIBILITY.


SDZ001>005-009-010-012>017-222200-
NORTHWEST AND NORTH CENTRAL SOUTH DAKOTA

CITY           SKY/WX    TMP DP  RH WIND       PRES   REMARKS
BUFFALO          N/A     56  38  50 SW8       29.74F
FAITH            N/A     60  40  47 S20G26    29.79F
MOBRIDGE       CLOUDY    47  30  51 SE24G32   29.91F
$$

SDZ012>016-024>037-041>051-057-063-072>074-222200-
SOUTHWEST AND SOUTH CENTRAL SOUTH DAKOTA

CITY           SKY/WX    TMP DP  RH WIND       PRES   REMARKS
RAPID CTY ARPT CLOUDY    62  44  51 N10       29.77R
PIERRE         MOSUNNY   53  32  44 SE32G40   29.91F
CUSTER         CLOUDY    64  31  28 SW16G35   29.84F
ELLSWORTH AFB  CLOUDY    58  43  56 N9        29.77S
PHILIP         CLOUDY    64  37  36 S18       29.79F
PINE RIDGE     SUNNY     64  40  41 S17G25    29.83F
SPEARFISH      FAIR      55  41  58 NW8       29.81F
WINNER         FAIR      53  29  39 S28G40    29.98F
$$

SDZ004>011-016>023-039-040-222200-
NORTHEAST SOUTH DAKOTA

CITY           SKY/WX    TMP DP  RH WIND       PRES   REMARKS
ABERDEEN       CLOUDY    34  24  67 SE25G36   30.09F WCI  21
WATERTOWN      CLOUDY    32  20  61 SE22G32   30.17F WCI  19
BROOKINGS      CLOUDY    33  21  61 SE22G31   30.21F WCI  21
SISSETON         N/A     31  25  78 S23G31    30.21F WCI  18
$$

SDZ017-020-022-023-036>040-048>070-222200-
SOUTHEAST SOUTH DAKOTA

CITY           SKY/WX    TMP DP  RH WIND       PRES   REMARKS
SIOUX FALLS    CLOUDY    37  23  56 SE21G26   30.24F
HURON          CLOUDY    36  25  64 SE20G32   30.12F
CHAMBERLAIN    CLOUDY    44  30  57 SE24G33   30.04F
MITCHELL       CLOUDY    38  25  59 SE22G32   30.16F
YANKTON        PTSUNNY   41  21  45 SE18G28   30.19F
$$

ABBREVIATIONS USED IN REMARKS
   TC - TEMPERATURE IN CELSIUS
  WCI - WIND CHILL INDEX
   HX - HEAT INDEX
  VSB - VISIBILITY





USA.gov is the U.S. government's official web portal to all federal, state and local government web resources and services.